THORAD AGENA D DEB, 5691

Orbit data source: Space-Track

THORAD AGENA D DEB, 5691 is space debris in SSO originally from a launch on Wed, 08 Apr 1970 UTC launched from the Air Force Western Test Range (AFWTR). Debris objects in space refer to the collection of defunct objects orbiting the Earth. Examples of debris include non-operational satellites, rocket bodies, and fragments generated from explosions, collisions, or faulty payload assembly.

Loading next visibility...
Identifier
5691, 1970-025LW
Orbit
SSO
Country
Flag of USUS
Related business
Manufacturer
Unknown
Mission
Spacecraft
Bus & Motor
Unknown
Mass
Unknown
Launch date (UTC)
1970-04-08 (56 years ago)
Launch vehicle
Unknown
Launch site
Air Force Western Test Range (AFWTR)
Object type
Payload
Rocket body
Debris
Shape & HBR
Unknown shape, 0.1 m
Radar Cross Section
Small (<0.1 m²)

Expand to show TLE details & history
Last TLE update: 22 hours ago

TLE from 22 hours ago
0 THORAD AGENA D DEB
1 05691U 70025LW  25352.43864481  .00001960  00000-0  11667-2 0  9999
2 05691  98.9065  63.1851 0033192  41.0007 319.3648 14.08274500804225
Epoch: 2025-12-18T10:31Z
TLE epoch observation values (Epoch: 2025-12-18T10:31:38.911Z)
Latitude
-0.00012°
Longitude
177.97885°
Altitude
849.96 km
Speed
7.437 km/s
True Right ascension
04h 12m 44s
True Declination
0° 00' 00"
Sunlit
Object was in full shadow at epoch
Visualization orbit readout
Latitude
Unknown
Longitude
Unknown
Altitude
Unknown
Speed
Unknown
Apparent Right ascension
Unknown
Apparent Declination
Unknown
Sunlit
N/A
Visualization observer readout
Local Sidereal Time
07:34:31
Azimuth
Unknown
Elevation
Unknown
Doppler factor
Unknown
Orbital elements
Apogee altitude
886.499 km
Perigee altitude
838.433 km
Semi-major axis
7,240.603 km
Eccentricity
0.00332
Inclination
98.9065°
RAAN
63.1851°
Arg. of periapsis
41.0007°
True anomaly
319.11632°
Mean anomaly
319.3648°
Eccentric anomaly
319.24064°
Mean motion
3.52274 °/min
Orbital period
102.19 mins
BSTAR
0.0011667
Loading maneuver chart data...
Computing Atmospheric mass density...

Documentation

Showing up to 5 results
|